Location: Street
(51.1247°N, 2.7429°W)
Time: 04:08:06
(UTC+00:00)

Transit 2A Rocket - Pass Details

Date: 30 November 2020
Orbit: 592 x 911 km, 66.7° (Epoch: 16 January)

Event Time Altitude Azimuth Distance (km) Brightness Sun altitude
Exits shadow 06:18:13 11° 329° (NNW) 2,265 7.0 -14.0°
Maximum altitude 06:20:41 15° 358° (N) 1,996 7.0 -13.6°
Drops below altitude 10° 06:23:31 10° 32° (NNE) 2,240 7.6 -13.2°
Sets 06:26:53 0° 57° (ENE) 3,087 8.7 -12.7°
